User: anonymous   Login
Location: Unspecified
(0.0000°N, 0.0000°E)
Time: 02:00:33
(UTC+00:00)
Language:

STARLINK-34196 - Orbit

View from above orbital plane
View from above orbital plane
View from above satellite
View from above satellite

Ground track
Ground track

The orbit is defined by the following mean orbital elements,

1 65324U          26145.37140818 +.00000000 +00000-0 +26636-1 0 00007
2 65324  53.1599 210.1009 0007349 228.5672 131.4699 15.33296562    07
Epoch (UTC): 25 May 2026 08:54:49
Eccentricity: 0.0007349
inclination: 53.1599°
perigee height: 461 km
apogee height: 471 km
right ascension of ascending node: 210.1009°
argument of perigee: 228.5672°
revolutions per day: 15.33296562
mean anomaly at epoch: 131.4699°

The dashed part of the orbit path shows where the satellite is in the earth's shadow,  

DLR